Regional Weather Roundup
Issued by NWS Upton, NY

Current Version | Previous Version | Text Only | Print | Product List | Glossary Off
Versions: 1 2 3 4 5 6 7 8 9 10 11 12 13 14 15 16 17 18 19 20 21 22 23 24 25 26 27 28 29 30 31 32 33 34 35 36 37 38 39 40 41 42 43 44 45 46 47 48 49 50
829 ASUS41 KOKX 221909 RWROKX REGIONAL WEATHER ROUNDUP NATIONAL WEATHER SERVICE NEW YORK NY 200 PM EST WED NOV 22 2017 NOTE: "FAIR" INDICATES FEW OR NO CLOUDS BELOW 12,000 FEET WITH NO SIGNIFICANT WEATHER AND/OR OBSTRUCTIONS TO VISIBILITY. NYZ071-072-176-178-NJZ106-104-222000- NEW YORK CITY METRO AREA CITY SKY/WX TMP DP RH WIND PRES REMARKS Central Park MOSUNNY 51 37 58 NW10G18 29.91R Bronx Bot Gard N/A 52 37 58 NW10 29.90R Bronx Lehman C N/A 50 32 50 NW9 N/A LaGuardia APRT MOSUNNY 52 39 61 NW21 29.88R Queens College N/A 52 32 46 NW14 N/A Kennedy INTL PTSUNNY 52 40 63 NW22 29.88R Breezy Point N/A 50 N/A N/A NW16G24 N/A Brooklyn Coll N/A 52 32 46 NW17 N/A Staten Island N/A 50 32 50 NW9 N/A Newark/Liberty MOSUNNY 52 37 56 NW20 29.91R Teterboro SUNNY 52 38 58 NW17 29.89R $$ NYZ177-179-078>081-222000- LONG ISLAND NEW YORK CITY SKY/WX TMP DP RH WIND PRES REMARKS Jones Beach N/A 52 N/A N/A NW21G28 N/A Wantagh N/A 54 32 43 NW14 N/A Matinecock PT N/A 52 N/A N/A NW25G31 N/A Farmingdale MOSUNNY 52 42 69 NW16G24 29.86S MacArthur/ISP CLOUDY 53 48 83 NW12 29.84S Shirley LGT RAIN 51 48 89 NW8 29.85R Mt Sinai Harb N/A N/A N/A N/A NW8 N/A Westhampton LGT RAIN 50 46 86 NW13 29.84R East Hampton DRIZZLE 49 47 93 N8 29.80F Southold N/A 50 32 50 N14 N/A Montauk N/A 52 50 93 NW15G21 29.81R $$ NYZ052-065-067-222000- HUDSON VALLEY CITY SKY/WX TMP DP RH WIND PRES REMARKS White Plains PTSUNNY 47 41 80 N18 29.88R Larchmont Harb N/A 50 N/A N/A W18 N/A Croton On Huds N/A 46 N/A N/A N8G14 N/A Somers N/A 43 32 65 N7 N/A Brewster N/A 43 32 65 NW13 N/A Newburgh PTSUNNY 46 41 81 VRB7 29.92R Montgomery SUNNY 47 31 53 NW13G25 29.92R Suffern N/A 48 32 53 N10 N/A Poughkeepsie CLOUDY 44 37 76 N7 29.92R Albany PTSUNNY 42 32 67 W14 29.95S $$ NJZ001-105-106-008-010-013-015-019>022-104-222000- NEW JERSEY CITY SKY/WX TMP DP RH WIND PRES REMARKS Newark/Liberty MOSUNNY 52 37 56 NW20 29.91R Teterboro SUNNY 52 38 58 NW17 29.89R Caldwell LGT RAIN 49 35 58 NW13G21 29.92R Somerville MOSUNNY 49 34 56 NW15G25 29.93R Linden FAIR 51 37 58 N17G25 29.92R Perth Amboy N/A 50 N/A N/A NW17G23 N/A Sussex CLOUDY 45 31 58 NW13G22 29.96R Andover N/A 44 31 60 N9G21 29.95R Trenton CLOUDY 49 35 58 NW12G28 29.93R Millville MOSUNNY 56 38 50 NW20G28 29.92R Atlantic City PTSUNNY 59 44 57 NW18G24 29.89S Wrightstown CLOUDY 52 38 60 NW15 29.89R Toms River PTSUNNY 56 42 59 NW18G24 29.89S Belmar CLOUDY 52 42 69 NW15G21 29.90R $$ PAZ047>061-062-071-222000- EASTERN PENNSYLVANIA CITY SKY/WX TMP DP RH WIND PRES REMARKS Philadelphia MOSUNNY 54 32 43 NW24G32 29.95R Allentown PTSUNNY 46 30 53 NW14G23 29.99R Scranton CLOUDY 39 28 64 NW9G20 30.02R WCI 33 $$ CTZ002-004>006-009-010-012-RIZ004-006-007-MAZ004-011-015-222000- SOUTHERN NEW ENGLAND IN CT CITY SKY/WX TMP DP RH WIND PRES REMARKS Bradley INTL LGT RAIN 46 43 89 NW8 29.85S Hartford CLOUDY 49 44 83 N12 29.85R Danbury CLOUDY 45 35 68 N13G22 29.90R Wtrbury/Oxford CLOUDY 43 38 82 NW14G24 29.86R Norwalk Harbor N/A 48 N/A N/A NW20G30 N/A Bridgeport LGT RAIN 51 44 77 NW18G31 29.85S Meriden LGT RAIN 48 45 89 NW13 29.84F New Haven CLOUDY 51 46 83 N14 29.84F Chester LGT RAIN 48 45 87 N7G16 29.82F Groton LGT RAIN 49 46 90 NW18 29.81R FOG Wilimantic LGT RAIN 49 45 86 N6 29.83S IN RI CITY SKY/WX TMP DP RH WIND PRES REMARKS Providence LGT RAIN 53 53 100 NW7 29.79S FOG Block Island CLOUDY 54 53 97 S3 29.78F Westerly CLOUDY 52 51 97 NW10 29.80S IN MA CITY SKY/WX TMP DP RH WIND PRES REMARKS Boston RAIN 50 49 96 NW15 29.79S FOG Worcester RAIN 44 40 85 NW12 29.81R Westfield LGT RAIN 45 41 86 NW9 29.85S Provincetown LGT RAIN 52 51 97 CALM 29.80F FOG Nantucket RAIN 53 53 100 N10 29.75F FOG $$ ANZ330-335-338-340-345-350-353-355-222000- COASTAL MARINE OBSERVATIONS STATION/POSITION TIME SKY/WX TEMP WIND PRES VSBY WAVE AIR SEA DIR/SP/G HT/PER (UTC) (F) (DEG/KT/KT) (MB) (MI) (FT/S) NY HARB ENTRANCE 1850 54 57 320/ 21/ 25 1010.5 2/ 5 20 S FIRE ISLAND 1850 54 57 320/ 19/ 25 1010.2 3/ 6 GREAT SOUTH BAY 1830 50 46 330/ 10/ 12 N/A HUDSON CANYON 1750 56 59 310/ 12/ 16 1008.8 4/ 6 KINGS POINT 1842 51 51 350/ 16/ 20 1012.4 EXECUTION ROCKS 1830 55 300/ 16/ 21 N/A WESTERN LI SOUND 1749 52 310/ 14/ 17 N/A 1 CENTRAL LI SOUND 1753 52 350/ 12/ 16 N/A 1 ROBBINS REEF 1842 51 310/ 19/ 24 1012.8 $$ >>>>>>>>>>>>>>>>>>>>>>>>>>>> KEY <<<<<<<<<<<<<<<<<<<<<<<<<<< > < > SKY/WX - Sky Condition/Present Weather < > TMP - Temperature in Fahrenheit < > DP - Dew Point in Fahrenheit < > RH - Relative Humidity in Percent < > WIND - Direction (from) and Speed in MPH < > PRES - Mean Sea Level Pressure (inches of Hg) < > WCI - Wind Chill Index < > VSB - VISIBILITY IN MILES < > HX - HEAT INDEX < > TC - TEMPERATURE IN CELSIUS < > VRB - VARIABLE WIND DIRECTION < > < >>>>>>>>>>>>>>>>>>>>>>>>>>>> KEY <<<<<<<<<<<<<<<<<<<<<<<<<<<

USA.gov is the U.S. government's official web portal to all federal, state and local government web resources and services.